Terminal Aerodrome Forecast
Issued by NWS Aberdeen, SD

Home | Current Version | Previous Version | Text Only | Print | Product List | Glossary On
Versions: 1 2 3 4 5 6 7 8 9 10 11 12 13 14 15 16 17 18 19 20 21 22 23 24 25 26 27 28 29 30 31 32 33 34 35 36 37 38 39 40 41 42 43 44 45 46 47 48 49 50
000
FTUS43 KABR 031500 AAA
TAFABR
TAF AMD
KABR 031513Z 0315/0412 34023G31KT 3SM HZ OVC028
      TEMPO 0315/0317 1SM -SN BLSN OVC009
     FM031700 32025G33KT 6SM BLSN OVC060
     FM032100 31015G25KT P6SM BKN040=

USA.gov is the U.S. government's official web portal to all federal, state and local government web resources and services.